Location: ??
(35.5653°N, 139.6194°E)
Time: 03:19:58
(UTC+00:00)

Cosmos 1655 Rocket - Pass Details

Date: 13 December 2025
Orbit: 969 x 1006 km, 83.0° (Epoch: 21 January)

Event Time Altitude Azimuth Distance (km) Brightness Sun altitude
Rises 21:04:11 0° 179° (S) 3,709 7.4 -7.9°
Reaches altitude 10° 21:06:43 10° 177° (S) 2,759 6.7 -7.4°
Maximum altitude 21:13:02 74° 94° (E) 1,033 4.4 -6.3°
Drops below altitude 10° 21:19:19 10° 10° (N) 2,751 6.2 -5.1°
Sets 21:21:50 0° 9° (N) 3,698 6.9 -4.6°
